| time (UTC) | temp C | wind direction | speed KPH | gust KPH | rain 1hr cm | rain 24hr cm | rain mn cm | humidity % | barometer mb |
| 20260505023120 | 14 | 351 | 1.6 | 6.4 | 0.00 | 0.00 | 0.00 | 90 | 1028.4 |
| 20260505021555 | 12 | 349 | 3.2 | 4.8 | 0.00 | 0.00 | 0.00 | 93 | 1028.6 |
| 20260505020053 | 12 | 360 | 1.6 | 4.8 | 0.00 | 0.00 | 0.00 | 94 | 1028.8 |
| 20260505014548 | 11 | 360 | 1.6 | 3.2 | 0.00 | 0.00 | 0.00 | 95 | 1028.9 |
| 20260505013059 | 10 | 360 | 0.0 | 1.6 | 0.00 | 0.00 | 0.00 | 94 | 1028.9 |
| 20260505011543 | 10 | 360 | 0.0 | 0.0 | 0.00 | 0.00 | 0.00 | 95 | 1028.9 |
| 20260505010038 | 9 | 360 | 0.0 | 0.0 | 0.00 | 0.00 | 0.00 | 95 | 1028.9 |
| 20260505004546 | 8 | 360 | 0.0 | 3.2 | 0.00 | 0.00 | 0.00 | 94 | 1028.9 |
| 20260505003034 | 8 | 242 | 0.0 | 4.8 | 0.00 | 0.00 | 0.00 | 95 | 1028.8 |
| 20260505001531 | 8 | 58 | 0.0 | 1.6 | 0.00 | 0.00 | 0.00 | 95 | 1028.6 |
| 20260505000044 | 8 | 54 | 0.0 | 0.0 | 0.00 | 0.00 | 0.00 | 94 | 1028.6 |
| 20260504234526 | 8 | 54 | 0.0 | 0.0 | 0.00 | 0.00 | 0.00 | 94 | 1028.4 |
| 20260504233022 | 8 | 54 | 0.0 | 0.0 | 0.00 | 0.00 | 0.00 | 94 | 1028.1 |
| 20260504231519 | 8 | 54 | 0.0 | 0.0 | 0.00 | 0.00 | 0.00 | 94 | 1028.0 |
| 20260504230017 | 8 | 54 | 0.0 | 0.0 | 0.00 | 0.00 | 0.00 | 94 | 1027.8 |
| 20260504224515 | 8 | 54 | 0.0 | 0.0 | 0.00 | 0.00 | 0.00 | 94 | 1027.7 |
| 20260504223015 | 7 | 54 | 0.0 | 0.0 | 0.00 | 0.00 | 0.00 | 94 | 1027.5 |
| 20260504221514 | 7 | 54 | 0.0 | 0.0 | 0.00 | 0.00 | 0.00 | 94 | 1027.5 |
| 20260504220014 | 7 | 54 | 0.0 | 0.0 | 0.00 | 0.00 | 0.00 | 94 | 1027.5 |
| 20260504214512 | 7 | 54 | 0.0 | 0.0 | 0.00 | 0.00 | 0.00 | 94 | 1027.4 |
| 20260504213012 | 7 | 54 | 0.0 | 0.0 | 0.00 | 0.00 | 0.00 | 94 | 1027.2 |
| 20260504211511 | 7 | 54 | 0.0 | 0.0 | 0.00 | 0.00 | 0.00 | 94 | 1027.3 |
| 20260504210013 | 7 | 54 | 0.0 | 0.0 | 0.00 | 0.00 | 0.00 | 94 | 1027.1 |
| 20260504204510 | 7 | 54 | 0.0 | 0.0 | 0.00 | 0.00 | 0.00 | 93 | 1027.1 |
| 20260504203010 | 7 | 54 | 0.0 | 0.0 | 0.00 | 0.00 | 0.00 | 93 | 1027.0 |
| 20260504201508 | 7 | 54 | 0.0 | 0.0 | 0.00 | 0.00 | 0.00 | 94 | 1027.0 |
| 20260504200010 | 7 | 54 | 0.0 | 0.0 | 0.00 | 0.00 | 0.00 | 94 | 1027.0 |
| 20260504194507 | 7 | 54 | 0.0 | 0.0 | 0.00 | 0.00 | 0.00 | 94 | 1027.1 |
| 20260504193008 | 7 | 54 | 0.0 | 0.0 | 0.00 | 0.00 | 0.00 | 94 | 1027.1 |
| 20260504191506 | 7 | 54 | 0.0 | 0.0 | 0.00 | 0.00 | 0.00 | 93 | 1027.1 |
| 20260504190005 | 7 | 54 | 0.0 | 0.0 | 0.00 | 0.00 | 0.00 | 94 | 1027.1 |
| 20260504184503 | 6 | 54 | 0.0 | 0.0 | 0.00 | 0.00 | 0.00 | 93 | 1027.2 |
| 20260504183002 | 6 | 54 | 0.0 | 0.0 | 0.00 | 0.00 | 0.00 | 93 | 1027.2 |
| 20260504181602 | 6 | 54 | 0.0 | 0.0 | 0.00 | 0.00 | 0.00 | 93 | 1027.3 |
| 20260504180117 | 7 | 54 | 0.0 | 0.0 | 0.00 | 0.00 | 0.00 | 92 | 1027.3 |
| 20260504174557 | 7 | 54 | 0.0 | 0.0 | 0.00 | 0.00 | 0.00 | 93 | 1027.4 |
| 20260504173057 | 7 | 54 | 0.0 | 0.0 | 0.00 | 0.00 | 0.00 | 93 | 1027.4 |
| 20260504171554 | 7 | 54 | 0.0 | 0.0 | 0.00 | 0.00 | 0.00 | 92 | 1027.5 |
| 20260504081516 | 18 | 140 | 0.0 | 4.8 | 0.00 | 0.00 | 0.00 | 64 | 1026.9 |
| 20260504044543 | 16 | 88 | 1.6 | 9.7 | 0.00 | 0.00 | 0.00 | 76 | 1027.6 |
| 20260504043046 | 16 | 78 | 1.6 | 14.5 | 0.00 | 0.00 | 0.00 | 80 | 1027.8 |
| 20260504041539 | 15 | 65 | 4.8 | 12.9 | 0.00 | 0.00 | 0.00 | 78 | 1027.9 |
| 20260504040044 | 15 | 46 | 1.6 | 8.0 | 0.00 | 0.00 | 0.00 | 78 | 1028.2 |
| 20260504034542 | 16 | 33 | 1.6 | 6.4 | 0.00 | 0.00 | 0.00 | 79 | 1028.4 |
| 20260504033038 | 15 | 51 | 0.0 | 4.8 | 0.00 | 0.00 | 0.00 | 81 | 1028.5 |
| 20260504031538 | 15 | 44 | 1.6 | 4.8 | 0.00 | 0.00 | 0.00 | 82 | 1028.7 |
| 20260504030030 | 15 | 43 | 0.0 | 4.8 | 0.00 | 0.00 | 0.00 | 85 | 1028.8 |
| 20260504024526 | 13 | 76 | 0.0 | 6.4 | 0.00 | 0.00 | 0.00 | 87 | 1028.9 |